Regional Weather Roundup
Issued by NWS

Home | Current Version | Previous Version | Graphics & Text | Print | Product List | Glossary On
Versions: 1 2 3 4 5 6 7 8 9 10 11 12 13 14 15 16 17 18 19 20 21 22 23 24 25 26 27 28 29 30 31 32 33 34 35 36 37 38 39 40 41 42 43 44 45 46 47 48 49 50
000
ASUS43 KMKX 241200
RWRWI

WISCONSIN REGIONAL WEATHER ROUNDUP
NATIONAL WEATHER SERVICE MILWAUKEE/SULLIVAN WI
700 AM CDT MON APR 24 2017

NOTE: "FAIR" INDICATES FEW OR NO CLOUDS BELOW 12,000 FEET WITH NO
SIGNIFICANT WEATHER AND/OR OBSTRUCTIONS TO VISIBILITY.

WIZ001-002-006>008-014>016-023>028-241300-
NORTHWEST WISCONSIN

CITY           SKY/WX    TMP DP  RH WIND       PRES   REMARKS
SUPERIOR ARPT  CLOUDY    35  29  79 E15       29.94S WCI  25
ASHLAND        PTCLDY    34  24  67 NE9       29.96F WCI  27
6HR MIN TEMP:  33; 6HR MAX TEMP:  35;

HAYWARD        CLOUDY    38  30  73 VRB6      29.90F WCI  33
6HR MIN TEMP:  36; 6HR MAX TEMP:  38;

SIREN          CLOUDY    37  35  92 CALM      29.86F
CUMBERLAND     CLOUDY    36  34  93 SE10      29.88S WCI  28
RICE LAKE      CLOUDY    39  35  84 SE10      29.91S WCI  32
6HR MIN TEMP:  39; 6HR MAX TEMP:  45;

CHETEK         CLOUDY    38  35  90 SE6       29.91R WCI  33
LADYSMITH      PTCLDY    36  31  83 E6        29.94F WCI  31
6HR MIN TEMP:  35; 6HR MAX TEMP:  43;

EAU CLAIRE     PTCLDY    40  34  79 SE8       29.90S WCI  34
6HR MIN TEMP:  39; 6HR MAX TEMP:  50;

MENOMONIE      CLOUDY    42  37  85 E7        29.89S
6HR MIN TEMP:  40; 6HR MAX TEMP:  50;

NEW RICHMOND   MOCLDY    43  38  82 SE9       29.85S
OSCEOLA        CLOUDY    45  39  81 E6        29.87R
$$

WIZ003>005-009-010-017-018-241300-
NORTH CENTRAL WISCONSIN

CITY           SKY/WX    TMP DP  RH WIND       PRES   REMARKS
MANITOWISH WTR PTCLDY    31  22  68 SE8       29.95F WCI  24
6HR MIN TEMP:  31; 6HR MAX TEMP:  33;

ARBOR VITAE    CLEAR     32  23  69 SE8       29.96R WCI  25
WOODRUFF       CLEAR     32  23  69 SE8       29.96R WCI  25
RHINELANDER    CLOUDY    33  25  72 E9        29.98S WCI  25
6HR MIN TEMP:  32; 6HR MAX TEMP:  36;

EAGLE RIVER    CLOUDY    30  20  68 SE8       29.98S WCI  22
LAND O LAKES   SUNNY     30  21  68 SE9       30.00S WCI  22
6HR MIN TEMP:  29; 6HR MAX TEMP:  32;

PHILLIPS       CLOUDY    32  27  81 SE8       29.94S WCI  25
6HR MIN TEMP:  32; 6HR MAX TEMP:  37;

TOMAHAWK       CLOUDY    31  24  76 SE3       29.98S
MEDFORD        CLEAR     32  28  85 SE6       29.95R WCI  26
MERRILL        CLOUDY    32  26  80 SE5       30.00R WCI  27
6HR MIN TEMP:  31; 6HR MAX TEMP:  35;

$$

WIZ029-030-035-036-043>047-241300-
CENTRAL WISCONSIN

CITY           SKY/WX    TMP DP  RH WIND       PRES   REMARKS
WAUSAU         PTCLDY    33  27  78 SE9       29.99R WCI  25
6HR MIN TEMP:  31; 6HR MAX TEMP:  35;

MOSINEE        MOCLDY    32  28  86 E7        30.01R WCI  26
MARSHFIELD     CLEAR     34  29  82 SE13      29.96R WCI  25
6HR MIN TEMP:  33; 6HR MAX TEMP:  38;

STEVENS POINT  PTCLDY    32  28  86 E7        30.01R WCI  26
WAUPACA        MOSUNNY   37  31  78 CALM      30.03R
6HR MIN TEMP:  35; 6HR MAX TEMP:  39;

WAUTOMA        CLEAR     35  30  82 CALM      30.02S
6HR MIN TEMP:  33; 6HR MAX TEMP:  38;

WISC RAPIDS    CLOUDY    36  30  79 E6        30.00R WCI  31
6HR MIN TEMP:  33; 6HR MAX TEMP:  39;

CAMP DOUGLAS   NOT AVBL
$$

WIZ011>013-019>022-031-037>040-048>050-241300-
NORTHEAST WISCONSIN

CITY           SKY/WX    TMP DP  RH WIND       PRES   REMARKS
ANTIGO         MOSUNNY   30  26  84 E8        29.99F WCI  22
SHAWANO        MOSUNNY   36  31  81 E7        30.04F WCI  30
6HR MIN TEMP:  35; 6HR MAX TEMP:  38;

OCONTO         MOSUNNY   34  30  86 N3        30.06R
STURGEON BAY   SUNNY     37  33  85 E5        30.06R WCI  33
6HR MIN TEMP:  34; 6HR MAX TEMP:  37;

GREEN BAY      MOSUNNY   38  34  85 NE5       30.03S WCI  34
6HR MIN TEMP:  34; 6HR MAX TEMP:  39;

MANITOWOC      NOT AVBL
APPLETON       MOSUNNY   36  28  75 E7        30.00S WCI  30
CLINTONVILLE   MOSUNNY   34  30  86 NE5       30.03F WCI  30
OSHKOSH        MOSUNNY   40  34  79 SE6       30.01S
6HR MIN TEMP:  38; 6HR MAX TEMP:  40;

$$

WIZ032>034-041-042-053>061-241300-
SOUTHWEST WISCONSIN

CITY           SKY/WX    TMP DP  RH WIND       PRES   REMARKS
LA CROSSE      CLEAR     46  39  76 E8        29.92S
6HR MIN TEMP:  45; 6HR MAX TEMP:  57;

SPARTA         CLEAR     38  36  91 E3        29.96S
6HR MIN TEMP:  37; 6HR MAX TEMP:  47;

VIROQUA        CLEAR     40  39  94 E10       29.94S WCI  34
6HR MIN TEMP:  40; 6HR MAX TEMP:  50;

BOSCOBEL       CLEAR     45  40  82 NE5       29.96S
6HR MIN TEMP:  42; 6HR MAX TEMP:  47;

PRAIRIE DU CHI CLEAR     44  39  83 E5        29.94R
PLATTEVILLE    CLOUDY    43  35  72 SE8       29.97S
$$

WIZ056-057-062-063-064-067-068-241300-
SOUTH CENTRAL WISCONSIN

CITY           SKY/WX    TMP DP  RH WIND       PRES   REMARKS
REEDSBURG      CLEAR     35  35  96 E3        29.98S
6HR MIN TEMP:  35; 6HR MAX TEMP:  43;

BARABOO/DELLS  CLEAR     36  33  89 E5        29.99S WCI  32
LONE ROCK      NOT AVBL
MINERAL POINT  CLEAR     45  36  70 SE9       29.97S
MADISON        PTCLDY    37  34  89 VRB5      30.01R WCI  33
6HR MIN TEMP:  35; 6HR MAX TEMP:  39;

MIDDLETON      CLEAR     41  38  88 CALM      30.01R
6HR MIN TEMP:  38; 6HR MAX TEMP:  46;

WATERTOWN      SUNNY     35  35  99 CALM      30.02R
MONROE         CLEAR     39  36  87 E6        29.99R WCI  35
JANESVILLE     PTCLDY    39  37  93 CALM      30.01R
$$

WIZ051-052-058>065-066-070>072-241300-
SOUTHEAST WISCONSIN

CITY           SKY/WX    TMP DP  RH WIND       PRES   REMARKS
MILWAUKEE      MOSUNNY   41  37  86 CALM      30.03S
6HR MIN TEMP:  39; 6HR MAX TEMP:  41;

WAUKESHA       SUNNY     34  32  93 NE5       30.04R WCI  30
MILWAUKEE/TIMM SUNNY     34  30  86 CALM      30.04R
RACINE         SUNNY     40  37  89 N5        30.05R
6HR MIN TEMP:  37; 6HR MAX TEMP:  40;

KENOSHA        SUNNY     38  37  97 CALM      30.03S
6HR MIN TEMP:  33; 6HR MAX TEMP:  38;

FOND DU LAC    CLOUDY    39  31  72 S6        30.01S WCI  35
6HR MIN TEMP:  36; 6HR MAX TEMP:  39;

SHEBOYGAN      SUNNY     37  34  89 CALM      30.04R
6HR MIN TEMP:  33; 6HR MAX TEMP:  38;

WEST BEND      SUNNY     34  32  93 CALM      30.03R
JUNEAU         SUNNY     35  32  88 E3        30.02S
$$

LSZ147-162-241300-
LAKE SUPERIOR

STATION/POSITION TIME  TEMP    WIND        PRES    WAVE
                       AIR SEA DIR/SP/G            HT/PER
                 (UTC) (F)     (DEG/KT/KT) (MB)    (FT/S)
DEVILS ISLAND    1100   34      80/ 26/ 29 1016.8F
SAXON HARBOR     1140   36      70/  4/  7 1014.6F
$$

LMZ867-665-643>646-241300-
LAKE MICHIGAN

STATION/POSITION TIME  TEMP    WIND        PRES    WAVE
                       AIR SEA DIR/SP/G            HT/PER
                 (UTC) (F)     (DEG/KT/KT) (MB)    (FT/S)
CHAMBERS ISLAND  1140   37      50/  7/  9 1017.6R
N MID LAKE BUOY  1050   36 37   80/ 14/ 17 1019.2F   3/ 4
NORTHPORT PIER   1140   37      90/ 11/ 15 1017.9S
KEWAUNEE LAKESHO 1130   39      50/  4/  8 1016.6R
SHEBOYGAN LAKESH 1100   40      30/  4/  5 1017.3S
PORT WASHINGTON  1140   41     290/  2/  3 1018.3R
MILWAUKEE LAKESH 1130   40      20/  7/  8   N/A
S MID LAKE BUOY  1050   42 40   50/  6/  8 1017.1F   2/ 6
KENOSHA   LAKESH 1100   40     310/  3/  4 1016.9
$$

TC  - TEMPERATURE IN CELSIUS
VSB - VISIBILITY IN STATUTE MILES
WCI - WIND CHILL INDEX
HX  - HEAT INDEX





USA.gov is the U.S. government's official web portal to all federal, state and local government web resources and services.